Location: Cornospital
(48.0620°N, 3.3837°W)
Time: 19:24:34
(UTC+00:00)

Cosmos 1900 - Pass Details

Date: 17 June 2021
Orbit: 691 x 730 km, 66.1° (Epoch: 03 August)

Event Time Altitude Azimuth Distance (km) Brightness Sun altitude
Rises 21:33:37 0° 325° (NW) 3,094 10.0 -9.9°
Reaches altitude 10° 21:35:59 10° 327° (NNW) 2,168 8.5 -10.2°
Maximum altitude 21:40:54 71° 52° (NE) 738 4.4 -10.7°
Enters shadow 21:44:58 15° 135° (SE) 1,837 5.8 -11.1°
